333P/LINEAR (2024)

Japanese version
Home page
Updated on August 9, 2025

---------------------------------------------------------------------

* Profile

* Pictures

* Orbital Elements

Epoch 2025 May 5.0 TT = JDT 2460800.5
T 2024 Nov. 29.29816 TT                                 Pike
q   1.1129751            (2000.0)            P               Q
n   0.11367848     Peri.   26.01968     -0.12520560     +0.73231413
a   4.2203702      Node   115.70684     +0.73012385     -0.38878817
e   0.7362850      Incl.  132.02230     +0.67174602     +0.55907045
P   8.67
From 1171 observations 2016 Jan. 1-2025 Feb. 18, mean residual 0".6.

* Finding Charts

* Magnitudes Graph

        H = 15.0  G = 0.15                [   ,-55]  (             - 2024 Oct.  5)
        m1 =  6.5 + 5 log d + 80   log r  [-55,-30]  (2024 Oct.  5 - 2024 Oct. 30)
        m1 = 10.7 + 5 log d + 25.0 log r  [-30,110]  (2024 Oct. 30 - 2025 Mar. 19)
        H = 15.0  G = 0.15                [110,   ]  (2025 Mar. 19 -             )

---------------------------------------------------------------------

The orbital elements are published on M.P.E.C. 2025-D254.
The charts are made with StellaNavigator Ver.10 (AstroArts).
The magnitudes graphs are made with Comet for Windows.

---------------------------------------------------------------------

Copyright(C) Seiichi Yoshida (comet@aerith.net). All rights reserved.